This demonstration page uses our WeatherBlox Daily Observations layout. Learn more.

Left ArrowRight Arrow

Hourly Observations for May 21, 2022

Temp ( °F °C ) Dew Point ( °F °C ) Humidity (%) Winds ( mph kmh ) Pressure ( in mb ) Visibility ( mi km ) Precip ( " mm )
12:03 am 00:03 Cloudy with Nearby Thunderstorms 70 21.1 68 20 93 93 NNW 9 15 29.71 1006 10 16 0.00 0.00
12:12 am 00:12 Cloudy with Light Rain 69 20.6 67 19.4 93 93 NNE 9 15 29.72 1006 10 16 0.00 0.00
12:21 am 00:21 Cloudy 68 20 66 18.9 93 93 N 9 15 29.72 1007 10 16 0.00 0.00
12:45 am 00:45 Cloudy with Nearby Thunderstorms 66 18.9 64 17.8 93 93 NW 14 22 29.76 1008 10 16 0.00 0.00
12:52 am 00:52 Cloudy with Nearby Thunderstorms 65 18.3 62 16.7 90 90 N 15 24 29.74 1007 10 16 0.00 0.00
1:08 am 01:08 Cloudy with Thunderstorms 64 17.8 60 15.6 87 87 N 13 20 29.76 1008 8 13 0.00 0.00
1:37 am 01:37 Cloudy with Thunderstorms 63 17.2 60 15.6 90 90 NNE 5 7 29.80 1009 10 16 0.05 1.27
1:45 am 01:45 Cloudy with Thunderstorms 62 16.7 60 15.6 93 93 N 12 19 29.76 1008 8 13 0.07 1.78
1:52 am 01:52 Mostly Cloudy with Thunderstorms 62 16.7 59 15 90 90 NNE 14 22 29.75 1008 10 16 0.07 1.78
2:00 am 02:00 Partly Cloudy with Thunderstorms 62 16.7 59 15 90 90 NNE 8 13 29.77 1008 10 16 0.00 0.00
2:10 am 02:10 Mostly Clear 62 16.7 59 15 90 90 N 7 11 29.77 1008 10 16 0.00 0.00
2:38 am 02:38 Mostly Clear with Nearby Thunderstorms 61 16.1 59 15 93 93 NNW 15 24 29.78 1009 10 16 0.00 0.00
2:52 am 02:52 Mostly Clear 60 15.6 58 14.4 93 93 NNW 17 28 29.78 1008 10 16 0.00 0.00
3:15 am 03:15 Mostly Clear 60 15.6 57 13.9 90 90 NNE 15 24 29.77 1008 10 16 0.00 0.00
3:52 am 03:52 Mostly Cloudy with Nearby Thunderstorms 60 15.6 57 13.9 90 90 N 12 19 29.77 1008 10 16 0.00 0.00
4:05 am 04:05 Mostly Cloudy with Thunderstorms 60 15.6 57 13.9 90 90 ENE 9 15 29.81 1010 10 16 0.00 0.00
4:38 am 04:38 Cloudy with Nearby Thunderstorms 60 15.6 58 14.4 93 93 N 8 13 29.82 1010 10 16 0.01 0.25
4:50 am 04:50 Cloudy 59 15 57 14 94 94 N 10 17 29.82 1010 10 16 0.01 0.25
4:52 am 04:52 Cloudy 59 15 58 14.4 96 96 NNE 12 19 29.79 1009 10 16 0.01 0.25
5:01 am 05:01 Cloudy with Light Rain 59 15 58 14.4 96 96 NE 13 20 29.81 1009 10 16 0.00 0.00
5:18 am 05:18 Cloudy 58 14.4 57 13.9 97 97 NNE 14 22 29.81 1009 10 16 0.00 0.00
5:43 am 05:43 Cloudy with Light Rain 58 14.4 57 13.9 97 97 NNE 13 20 29.81 1009 10 16 0.00 0.00
5:52 am 05:52 Cloudy with Light Rain 58 14.4 56 13.3 93 93 NE 13 20 29.79 1009 10 16 0.00 0.00
6:04 am 06:04 Cloudy 58 14.4 56 13.3 93 93 NNE 15 24 29.81 1009 10 16 0.00 0.00
6:15 am 06:15 Cloudy with Nearby Thunderstorms 58 14.4 56 13.3 93 93 NNE 13 20 29.84 1011 10 16 0.00 0.00
6:33 am 06:33 Cloudy with Strong Thunderstorms 55 12.8 53 11.7 93 93 NW 32 52 29.97 1015 3 4 0.05 1.27
6:42 am 06:42 Cloudy with Strong Thunderstorms 55 12.8 52 11.1 90 90 N 31 50 29.93 1013 2 3 0.16 4.06
6:46 am 06:46 Cloudy with Strong Thunderstorms 55 13 52 11 88 88 N 23 37 29.95 1014 2 3 0.20 5.08
6:52 am 06:52 Cloudy with Strong Thunderstorms 54 12.2 53 11.7 97 97 N 17 28 29.90 1013 2 3 0.30 7.62
6:56 am 06:56 Cloudy with Strong Thunderstorms 54 12.2 53 11.7 97 97 N 17 28 29.96 1015 2 3 0.08 2.03
7:08 am 07:08 Cloudy with Strong Thunderstorms 53 11.7 52 11.1 96 96 N 22 35 29.94 1014 3 5 0.27 6.86
7:32 am 07:32 Cloudy with Strong Thunderstorms 53 11.7 52 11.1 96 96 NNE 17 28 29.92 1013 4 6 0.47 11.94
7:45 am 07:45 Cloudy with Nearby Thunderstorms 53 11.7 52 11.1 96 96 N 17 28 29.94 1014 10 16 0.57 14.48
7:52 am 07:52 Cloudy with Nearby Thunderstorms 53 11.7 52 11.1 96 96 NW 6 9 29.99 1016 10 16 0.57 14.48
8:17 am 08:17 Cloudy with Thunderstorms 53 11.7 52 11.1 96 96 N 10 17 30.00 1016 5 8 0.08 2.03
8:32 am 08:32 Cloudy with Rain 53 11.7 52 11.1 96 96 NNE 18 30 29.94 1014 8 13 0.12 3.05
8:49 am 08:49 Cloudy with Thunderstorms 54 12 52 11 94 94 NE 25 41 29.91 1013 5 8 0.15 3.81
8:52 am 08:52 Cloudy with Thunderstorms 53 11.7 52 11.1 96 96 NE 21 33 29.89 1012 6 10 0.16 4.06
8:58 am 08:58 Cloudy with Nearby Thunderstorms 53 11.7 52 11.1 96 96 ENE 16 26 29.90 1013 7 11 0.01 0.25
9:18 am 09:18 Windy with Storms Likely 53 11.7 52 11.1 96 96 ENE 25 41 29.85 1011 10 16 0.02 0.51
9:34 am 09:34 Cloudy with Light Rain 54 12.2 53 11.7 97 97 SSE 13 20 29.87 1012 10 16 0.04 1.02
9:52 am 09:52 Cloudy with Light Rain 55 12.8 54 12.2 96 96 SSE 16 26 29.89 1012 10 16 0.04 1.02
10:52 am 10:52 Cloudy 56 13.3 54 12.2 93 93 W 8 13 29.96 1015 10 16 0.00 0.00
11:52 am 11:52 Cloudy with Light Rain 56 13.3 54 12.2 93 93 NW 7 11 29.98 1015 10 16 0.00 0.00
12:22 pm 12:22 Cloudy with Nearby Thunderstorms 55 12.8 54 12.2 96 96 N 10 17 30.01 1016 10 16 0.00 0.00
12:32 pm 12:32 Cloudy 55 12.8 54 12.2 96 96 N 9 15 30.02 1017 10 16 0.00 0.00
12:52 pm 12:52 Cloudy with Mist and Fog 55 12.8 54 12.2 96 96 N 9 15 29.99 1016 6 10 0.00 0.00
1:10 pm 13:10 Cloudy with Nearby Thunderstorms 55 12.8 53 11.7 93 93 N 12 19 30.00 1016 6 10 0.00 0.00
1:52 pm 13:52 Cloudy with Light Rain 54 12.2 52 11.1 93 93 NNE 12 19 30.00 1016 8 13 0.00 0.00
2:23 pm 14:23 Cloudy with Strong Thunderstorms 53 11.7 52 11.1 96 96 N 10 17 30.01 1016 4 6 0.04 1.02
2:27 pm 14:27 Cloudy with Strong Thunderstorms 53 11.7 52 11.1 96 96 N 13 20 30.02 1017 2 3 0.07 1.78
2:36 pm 14:36 Cloudy with Thunderstorms 53 11.7 52 11.1 96 96 N 10 17 30.04 1017 3 4 0.23 5.84
2:52 pm 14:52 Cloudy with Strong Thunderstorms 53 11.7 52 11.1 96 96 NNE 12 19 30.01 1016 2 3 0.36 9.14
3:07 pm 15:07 Cloudy with Nearby Thunderstorms 53 11.7 52 11.1 96 96 N 12 19 30.02 1017 7 11 0.10 2.54
3:14 pm 15:14 Cloudy with Nearby Thunderstorms 53 11.7 53 11.7 100 100 N 12 19 30.03 1017 10 16 0.11 2.79
3:18 pm 15:18 Cloudy with Light Rain 53 11.7 52 11.1 96 96 N 14 22 30.02 1017 10 16 0.11 2.79
3:52 pm 15:52 Cloudy 53 11.7 52 11.1 96 96 N 9 15 30.02 1017 10 16 0.11 2.79
4:52 pm 16:52 Cloudy 54 12.2 53 11.7 97 97 N 14 22 30.03 1017 10 16 0.00 0.00
5:52 pm 17:52 Cloudy 54 12.2 53 11.7 97 97 N 17 28 30.02 1017 7 11 0.00 0.00
6:21 pm 18:21 Cloudy with Mist and Fog 55 12.8 53 11.7 93 93 N 13 20 30.05 1018 6 10 0.00 0.00
6:52 pm 18:52 Cloudy with Light Rain 54 12.2 53 11.7 97 97 N 15 24 30.06 1018 3 4 0.00 0.00
7:21 pm 19:21 Cloudy with Light Rain 54 12.2 53 11.7 97 97 N 13 20 30.08 1019 4 6 0.01 0.25
7:36 pm 19:36 Cloudy 54 12.2 52 11.1 93 93 N 14 22 30.08 1019 10 16 0.01 0.25
7:52 pm 19:52 Cloudy 54 12.2 52 11.1 93 93 N 10 17 30.09 1019 10 16 0.01 0.25
8:01 pm 20:01 Cloudy 54 12.2 52 11.1 93 93 N 10 17 30.10 1019 10 16 0.00 0.00
8:52 pm 20:52 Cloudy 54 12.2 52 11.1 93 93 N 10 17 30.11 1020 10 16 0.00 0.00
9:52 pm 21:52 Cloudy 54 12.2 53 11.7 97 97 N 8 13 30.14 1021 10 16 0.00 0.00
10:52 pm 22:52 Cloudy 54 12.2 53 11.7 97 97 N 7 11 30.18 1022 10 16 0.00 0.00
11:52 pm 23:52 Clear 53 11.7 52 11.1 96 96 NNW 6 9 30.19 1022 10 16 0.00 0.00

Powered by AerisWeather